Flag for Germany Weather past 2 weeks in Wiesbaden, Hesse, Germany

Now
73 °F

Passing clouds.


Feels Like: 74 °F
Forecast: 54 / 68 °F
Wind: 5 mph from Southeast

Location: Wiesbaden Airport

Current Time: Sep 1, 2015 at 10:30:26 AM

Latest Report: Sep 1, 2015 at 9:58 AM


Visibility: N/A

Pressure: 29.76 "Hg

Humidity: 74%

Dew point: 64 °F

Location of WiesbadenLocation

Historic Weather in Wiesbaden — Graph

°F

Wiesbaden temperature yesterday

Maximum temperature yesterday: 93 °F (at 3:58 PM)
Minimum temperature yesterday: 67 °F (at 5:58 AM)
Average temperature yesterday: 80 °F

Past Weeks' High & Low Weather Summary

 TemperatureHumidityPressure
High93 °F (Aug 31, 3:58 PM)100% (Aug 23, 8:58 PM)30.29 "Hg (Aug 23, 8:58 PM)
Low51 °F (Aug 19, 5:58 AM)24% (Aug 22, 4:58 PM)29.66 "Hg (Aug 23, 6:58 PM)
Average68 °F69%30.00 "Hg
* Reported Aug 17 8:03 AM — Sep 1 8:58 AM, Wiesbaden, Weather by CustomWeather, © 2015

Note: Actual official high and low records may vary slightly from our data, if they occured in-between our weather recording intervals... More about our weather records

Advertising

Wiesbaden weather history for previous 24 hours

 ConditionsComfort  
Time TempWeatherWind HumidityBarometerVisibility
8:58 AM
Tue, Sep 1
73 °FPartly sunny.5 mph69%29.76 "HgN/A
7:58 AM71 °FBroken clouds.6 mph76%29.78 "HgN/A
6:58 AM70 °FThundershowers. Passing clouds.2 mph79%29.79 "HgN/A
4:58 AM70 °FOvercast.5 mph78%29.80 "HgN/A
3:58 AM70 °FPartly cloudy.8 mph78%29.81 "HgN/A
2:58 AM72 °FPassing clouds.5 mph73%29.81 "HgN/A
1:58 AM74 °FPassing clouds.8 mph69%29.82 "HgN/A
12:58 AM70 °FClear.3 mph69%29.81 "HgN/A
10:58 PM
Mon, Aug 31
76 °FPassing clouds.3 mph54%29.80 "HgN/A
9:58 PM79 °FPassing clouds.7 mph47%29.79 "HgN/A
8:58 PM82 °FSunny.6 mph43%29.80 "HgN/A
7:58 PM86 °FSunny.14 mph35%29.79 "HgN/A
6:58 PM90 °FSunny.15 mph29%29.79 "HgN/A
5:58 PM92 °FSunny.17 mph25%29.79 "HgN/A
4:58 PM93 °FSunny.14 mph26%29.80 "HgN/A
3:58 PM93 °FSunny.13 mph28%29.82 "HgN/A
2:58 PM91 °FSunny.13 mph28%29.85 "HgN/A
1:58 PM90 °FSunny.15 mph28%29.87 "HgN/A
12:58 PM88 °FSunny.14 mph32%29.88 "HgN/A
11:58 AM84 °FSunny.10 mph40%29.90 "HgN/A
10:58 AM81 °FSunny.8 mph54%29.93 "HgN/A
Weather by CustomWeather, © 2015

See weather overviewHow to use our weather pages